EW1505 Weather Reports


time (UTC)temp
F
wind
direction
speed
knots
gust
knots
rain 1hr
in
rain 24hr
in
rain mn
in
humidity
%
barometer
mb
20260509043826 55 112 0.0 0.0 0.00 0.01 0.00 92 1013.4
20260509043743 55 112 0.0 0.0 0.00 0.01 0.00 92 1013.4
20260509042728 55 112 0.0 0.0 0.00 0.01 0.00 91 1013.6
20260509041726 55 112 0.0 0.0 0.00 0.01 0.00 90 1013.5
20260509040728 55 112 0.0 0.0 0.00 0.01 0.00 90 1013.8
20260509035728 55 112 0.0 0.0 0.00 0.01 0.01 89 1013.6
20260509033829 55 112 0.0 0.0 0.00 0.01 0.01 87 1013.7
20260509032846 55 112 0.0 0.0 0.00 0.01 0.01 87 1013.9
20260509032744 55 112 0.0 0.0 0.00 0.01 0.01 87 1013.8
20260509031729 55 112 0.0 0.0 0.00 0.01 0.01 86 1013.9
20260509031646 55 112 0.0 0.0 0.00 0.01 0.01 86 1014.0
20260509030629 56 112 0.0 0.0 0.00 0.01 0.01 86 1013.9
20260509025628 56 112 0.0 0.0 0.00 0.01 0.01 85 1014.0
20260509024646 56 112 0.0 0.0 0.00 0.01 0.01 85 1014.2
20260509022629 56 180 0.0 0.0 0.00 0.01 0.01 86 1014.2
20260509022527 56 179 0.0 0.0 0.00 0.01 0.01 86 1014.3
20260509022427 56 180 0.0 0.0 0.00 0.01 0.01 85 1014.3
20260509020429 56 157 0.0 0.0 0.00 0.01 0.01 85 1014.0
20260509014528 57 157 0.0 0.0 0.00 0.01 0.01 83 1013.3
20260509013528 57 157 0.0 0.0 0.00 0.01 0.01 82 1013.3
20260509013444 57 157 0.0 0.0 0.00 0.01 0.01 82 1013.3
20260509012330 57 157 0.0 0.0 0.00 0.01 0.01 80 1013.4
20260509011327 58 180 0.0 0.9 0.00 0.01 0.01 78 1013.3
20260509010328 58 180 0.0 0.0 0.00 0.01 0.01 79 1013.3
20260509005328 59 180 0.9 1.7 0.00 0.01 0.01 81 1013.2
20260509001329 60 202 0.0 0.0 0.00 0.01 0.01 75 1012.6
20260509000327 61 202 0.0 0.0 0.00 0.01 0.01 73 1012.8
20260508234328 61 202 0.0 0.0 0.00 0.01 0.01 70 1012.6
20260508234227 61 202 0.0 0.0 0.00 0.01 0.01 70 1012.5
20260508234128 61 202 0.0 0.0 0.00 0.01 0.01 70 1012.5
20260508233145 62 202 0.0 0.0 0.00 0.01 0.01 70 1012.4
20260508231246 63 225 0.0 0.0 0.00 0.01 0.01 57 1012.6
20260508231128 64 225 0.0 0.0 0.00 0.01 0.01 56 1012.6
20260508230130 64 225 0.0 0.0 0.00 0.01 0.01 52 1012.6
20260508230029 64 225 0.0 0.0 0.00 0.01 0.01 51 1012.6
20260508225029 66 225 0.0 0.0 0.00 0.01 0.01 48 1012.3
20260508224027 66 225 0.0 0.0 0.00 0.01 0.01 46 1012.4
20260508222028 67 225 0.9 0.9 0.00 0.01 0.01 44 1012.1
20260508221028 67 225 0.0 0.9 0.00 0.01 0.01 43 1012.1
20260508215030 68 213 2.6 4.3 0.00 0.01 0.01 42 1012.0
20260508214030 68 225 2.6 5.2 0.00 0.01 0.01 42 1012.0
20260508213028 68 219 1.7 3.5 0.00 0.01 0.01 42 1012.0
20260508212029 68 225 1.7 3.5 0.00 0.01 0.01 42 1012.1
20260508211027 68 225 1.7 3.5 0.00 0.01 0.01 42 1012.4
20260508210947 68 225 4.3 7.0 0.00 0.01 0.01 43 1012.3
20260508210027 68 225 2.6 3.5 0.00 0.01 0.01 43 1012.4
20260508205029 68 225 1.7 2.6 0.00 0.01 0.01 43 1012.6
20260508204045 68 225 2.6 3.5 0.00 0.01 0.01 42 1013.0
20260508203128 68 201 1.7 4.3 0.00 0.01 0.01 41 1013.0
20260508203045 68 217 3.5 4.3 0.00 0.01 0.01 41 1013.0
20260508202930 68 223 3.5 4.3 0.00 0.02 0.01 41 1013.1
20260508201927 68 223 4.3 6.1 0.00 0.02 0.01 41 1013.2
20260508201827 68 220 4.3 7.8 0.00 0.02 0.01 41 1013.2
20260508200827 68 209 2.6 4.3 0.00 0.02 0.01 41 1013.3
20260508200743 68 225 4.3 6.1 0.00 0.02 0.01 40 1013.3
20260508194828 68 222 5.2 7.8 0.00 0.02 0.01 40 1013.4
20260508193845 68 213 4.3 6.1 0.00 0.02 0.01 41 1013.7
20260508193745 68 223 2.6 4.3 0.00 0.02 0.01 41 1013.6
20260508192828 68 215 2.6 5.2 0.00 0.02 0.01 41 1013.6
20260508191828 68 217 2.6 3.5 0.00 0.02 0.01 40 1013.6
20260508190827 68 220 6.1 9.6 0.00 0.02 0.01 39 1013.8
20260508185728 69 215 7.0 13.0 0.00 0.02 0.01 38 1013.7
20260508183744 69 214 4.3 7.8 0.00 0.02 0.01 40 1014.2
20260508182828 68 214 6.1 9.6 0.00 0.02 0.01 40 1014.2
20260508181843 69 215 4.3 7.0 0.00 0.02 0.01 41 1014.3
20260508174828 68 215 5.2 9.6 0.00 0.02 0.01 41 1015.1
20260508174728 68 215 6.1 11.3 0.00 0.02 0.01 42 1015.0
20260508173743 67 223 7.8 12.2 0.00 0.02 0.01 42 1015.2
20260508172728 67 215 3.5 5.2 0.00 0.02 0.01 43 1015.4
20260508171744 66 217 5.2 7.0 0.00 0.02 0.01 44 1015.5
20260508170827 67 212 6.1 11.3 0.00 0.02 0.01 44 1015.7
20260508170727 67 219 4.3 7.0 0.00 0.02 0.01 44 1015.8
20260508165727 67 210 1.7 3.5 0.00 0.02 0.01 44 1015.7
20260508163829 67 209 2.6 4.3 0.00 0.02 0.01 43 1016.1
20260508163729 67 219 4.3 9.6 0.00 0.02 0.01 43 1016.1
20260508162730 67 218 6.1 7.8 0.00 0.02 0.01 45 1016.4
20260508161729 66 212 3.5 6.1 0.00 0.02 0.01 45 1016.6
20260508155630 65 224 7.0 10.4 0.00 0.02 0.01 45 1016.6
20260508154727 65 214 7.0 12.2 0.00 0.02 0.01 45 1016.6
20260508153727 65 212 6.1 9.6 0.00 0.02 0.01 47 1016.8
20260508152729 64 221 3.5 5.2 0.00 0.02 0.01 47 1017.0
20260508151729 64 220 3.5 6.1 0.00 0.02 0.01 49 1017.2
20260508144827 61 223 3.5 7.0 0.00 0.02 0.01 52 1017.5
20260508142845 59 223 4.3 6.1 0.01 0.02 0.01 54 1017.6
20260508141929 59 221 3.5 6.1 0.01 0.02 0.01 55 1017.6
20260508140027 57 217 5.2 6.1 0.01 0.02 0.01 56 1018.0
20260508135027 57 224 7.8 12.2 0.01 0.02 0.01 56 1018.0
20260508134028 56 223 7.8 13.0 0.00 0.01 0.00 57 1017.9
20260508133046 56 215 7.8 9.6 0.00 0.01 0.00 59 1018.1
20260508132130 54 225 4.3 8.7 0.00 0.01 0.00 60 1018.0
20260508132029 54 225 4.3 6.1 0.00 0.01 0.00 59 1018.0
20260508131046 53 225 5.2 7.8 0.00 0.01 0.00 61 1018.1
20260508130127 53 250 7.0 11.3 0.00 0.01 0.00 62 1018.0
20260508125142 53 245 5.2 7.0 0.00 0.01 0.00 65 1018.2
20260508125028 53 246 5.2 7.0 0.00 0.01 0.00 66 1018.2
20260508124127 52 241 4.3 6.1 0.00 0.01 0.00 66 1018.2
20260508123129 51 254 3.5 7.0 0.00 0.01 0.00 65 1017.9
20260508122143 51 250 3.5 5.2 0.00 0.01 0.00 67 1017.9
20260508121229 50 246 4.3 7.0 0.00 0.01 0.00 69 1017.9
20260508120227 50 241 4.3 6.1 0.00 0.01 0.00 71 1017.9
20260508115128 49 241 4.3 6.1 0.00 0.01 0.00 74 1017.8
20260508114128 48 240 4.3 7.0 0.00 0.01 0.00 75 1017.8
20260508113226 48 247 3.5 4.3 0.00 0.01 0.00 78 1017.8
20260508113127 48 248 2.6 4.3 0.00 0.01 0.00 79 1017.9
20260508112127 48 247 0.9 2.6 0.00 0.01 0.00 84 1017.8
20260508111128 46 247 1.7 2.6 0.00 0.01 0.00 90 1017.6
20260508110127 44 247 0.0 0.0 0.00 0.01 0.00 91 1017.5
20260508105143 44 247 0.0 0.0 0.00 0.01 0.00 92 1017.6
20260508104230 44 247 0.0 0.0 0.00 0.01 0.00 92 1017.5
20260508102329 44 247 0.0 0.0 0.00 0.01 0.00 92 1017.6
20260508101329 43 247 0.0 0.0 0.00 0.01 0.00 91 1017.6
20260508101226 43 247 0.0 0.0 0.00 0.01 0.00 91 1017.6
20260508100243 43 247 0.0 0.0 0.00 0.01 0.00 91 1017.5
20260508095227 43 247 0.0 0.0 0.00 0.01 0.00 91 1017.5
20260508094244 43 247 0.0 0.0 0.00 0.01 0.00 91 1017.5
20260508094128 43 247 0.0 0.0 0.00 0.01 0.00 91 1017.5
20260508093227 43 247 0.0 0.0 0.00 0.01 0.00 91 1017.6
20260508092226 43 247 0.0 0.0 0.00 0.01 0.00 90 1017.7
20260508092127 43 247 0.0 0.0 0.00 0.01 0.00 91 1017.7
20260508091128 42 247 0.0 0.0 0.00 0.01 0.00 91 1017.7
20260508090127 42 247 0.0 0.0 0.00 0.01 0.00 90 1017.7
20260508085128 41 247 0.0 0.0 0.00 0.01 0.00 89 1017.6
20260508085044 41 247 0.0 0.0 0.00 0.01 0.00 89 1017.7
20260508083928 42 247 0.0 0.0 0.00 0.01 0.00 89 1017.5
20260508082930 42 247 0.0 0.0 0.00 0.01 0.00 89 1017.5
20260508082026 41 247 0.0 0.0 0.00 0.01 0.00 88 1017.4
20260508081028 41 247 0.0 0.0 0.00 0.01 0.00 88 1017.4
20260508080929 41 247 0.0 0.0 0.00 0.01 0.00 88 1017.4
20260508075943 42 247 0.0 0.0 0.00 0.01 0.00 87 1017.5
20260508075028 42 247 0.0 0.0 0.00 0.01 0.00 86 1017.4
20260508074027 43 247 0.0 0.0 0.00 0.01 0.00 86 1017.5
20260508073126 43 247 0.0 0.0 0.00 0.01 0.00 88 1017.5
20260508072129 43 247 0.0 0.0 0.00 0.01 0.00 88 1017.4
20260508071128 42 247 0.0 0.0 0.00 0.01 0.00 91 1017.6
20260508070129 41 247 0.0 0.0 0.00 0.01 0.00 90 1017.6
20260508065130 41 247 0.0 0.0 0.00 0.01 0.00 91 1017.8
20260508064145 41 247 0.0 0.0 0.00 0.01 0.00 91 1017.8
20260508063228 41 247 0.0 0.0 0.00 0.01 0.00 91 1017.9
20260508062327 41 247 0.0 0.0 0.00 0.01 0.00 90 1018.2
20260508061328 41 247 0.0 0.0 0.00 0.01 0.00 90 1018.0
20260508060328 41 247 0.0 0.0 0.00 0.01 0.00 89 1018.3
20260508055426 41 247 0.0 0.0 0.00 0.01 0.00 89 1018.3
20260508054443 41 247 0.0 0.0 0.00 0.01 0.00 88 1018.2
20260508052427 42 247 0.0 0.0 0.00 0.01 0.00 86 1018.2
20260508052328 42 247 0.0 0.0 0.00 0.01 0.00 87 1018.2
20260508051345 42 247 0.0 0.0 0.00 0.01 0.00 85 1018.2
20260508045328 43 247 0.0 0.0 0.00 0.01 0.00 85 1018.0